Probability
0 0 0 0 0 0 0 0 0 0 3 0 0 0 3 0 6 6 6 3 6 3 3 10 13 16 10 10 13 16 16 16 19 16 10 10 10 10 13 10 10 13 13 16
0 0 0 0 0 0 0 0 0 3 3 0 0 3 3 6 3 6 6 6 6 6 6 10 13 13 10 10 13 13 19 16 13 13 10 6 10 13 13 13 10 10 13 13
0 0 0 0 0 0 0 3 0 0 3 0 0 3 6 6 6 6 10 13 16 10 6 13 13 13 10 13 10 16 19 19 13 13 13 13 16 19 16 16 13 13 13 16
0 0 0 0 0 0 3 3 3 0 0 3 0 3 6 6 6 6 6 10 13 10 10 6 10 13 13 10 10 16 19 13 10 10 16 16 16 16 16 16 16 16 16 13
0 0 0 0 0 3 3 3 3 3 3 0 0 0 0 3 6 0 3 6 6 10 6 6 13 13 6 0 3 6 6 6 6 13 16 13 19 16 16 16 16 16 16 16
0 0 0 0 0 0 0 0 3 3 0 0 0 0 0 0 0 3 6 10 13 6 6 10 13 10 3 3 6 10 6 6 10 13 13 13 16 16 19 16 19 19 16 16
0 0 0 0 6 0 0 0 0 3 0 0 0 0 0 0 3 0 3 3 3 6 6 3 6 6 0 0 6 3 3 3 6 13 13 13 16 16 16 16 19 23 19 13
0 0 0 0 6 6 0 0 0 0 0 0 0 0 0 0 0 0 0 0 0 3 6 6 3 3 3 3 3 6 6 6 10 13 10 10 16 16 16 16 16 16 16 19
0 0 0 0 0 0 0 6 3 3 0 0 3 0 0 3 3 0 0 0 0 0 3 3 0 0 0 3 3 3 3 3 3 6 6 10 10 3 3 16 16 16 16 16
0 0 3 3 3 3 3 6 3 3 3 6 3 3 0 3 3 3 0 0 0 0 0 0 0 0 0 0 3 3 3 3 3 6 6 6 6 6 6 6 13 16 16 16
0 3 3 3 3 3 3 3 3 6 6 3 3 0 3 3 3 3 3 3 3 0 0 3 0 0 0 0 0 3 3 3 3 6 6 6 6 6 10 13 13 10 10 13
3 3 3 3 3 3 3 3 3 3 0 3 3 0 3 3 3 3 3 3 3 3 3 3 3 0 0 0 0 0 0 0 6 6 6 6 3 6 6 3 3 0 3 6
0 0 3 3 3 3 3 3 3 0 0 0 0 0 0 0 0 0 3 3 3 0 0 3 3 3 0 0 0 0 0 3 3 3 3 6 6 6 10 6 3 0 0 0
0 3 3 6 3 3 3 3 0 0 0 0 0 0 0 0 0 0 0 0 0 0 0 0 0 0 0 0 0 0 3 3 3 3 0 3 6 6 6 10 10 6 3 0
0 0 0 0 3 3 0 0 0 0 0 0 0 0 0 0 0 3 0 0 0 0 0 0 0 0 0 0 3 3 3 3 3 3 0 3 3 3 3 6 10 10 10 3
0 0 0 0 0 0 0 0 0 0 0 0 0 0 0 3 3 3 0 0 0 0 0 0 0 0 0 0 0 0 0 0 3 3 3 3 3 3 3 3 3 6 10 10
0 0 0 0 0 0 0 0 0 3 3 0 3 3 3 3 3 0 0 0 0 0 0 0 0 0 0 0 0 0 0 3 3 3 3 3 3 3 3 3 3 3 3 3
0 0 0 0 0 0 0 0 0 3 3 3 0 3 3 3 0 0 0 0 0 0 0 0 0 0 0 0 0 0 3 3 3 3 3 3 3 3 3 3 3 3 3 3
0 0 0 0 0 0 0 0 0 0 3 3 0 0 0 0 0 0 0 0 0 0 0 0 0 0 0 0 0 0 3 3 3 3 3 3 3 3 3 3 3 3 3 3
0 0 0 0 0 0 0 0 0 0 3 3 3 0 0 0 0 0 0 0 0 0 0 0 0 0 0 0 0 0 0 3 3 3 3 3 3 3 3 0 0 0 0 0
0 0 0 0 0 0 0 0 0 0 0 3 3 3 3 0 0 0 0 0 0 0 0 0 0 0 0 0 0 0 0 0 3 3 3 3 3 0 0 0 0 0 0 0
0 0 0 0 0 0 0 0 0 0 0 0 3 3 3 0 0 0 0 0 0 0 0 0 0 0 0 0 0 0 0 0 0 0 0 0 0 0 0 0 0 0 0 0
0 0 0 0 0 0 0 0 0 0 0 0 0 0 0 0 0 0 0 0 0 0 0 0 0 0 0 0 0 0 0 0 0 0 0 0 0 0 0 0 0 0 0 0
0 0 0 0 0 0 0 0 0 0 0 0 0 0 0 0 0 0 0 0 0 0 0 0 0 0 0 0 0 0 0 0 0 0 0 0 0 0 0 0 0 0 0 0
0 0 0 0 0 0 0 0 0 0 0 0 0 0 0 0 0 0 0 0 0 0 0 0 0 0 0 0 0 0 0 0 0 0 0 0 0 0 0 0 0 0 0 0
0 0 0 0 0 0 0 0 0 0 0 0 0 0 0 0 0 0 0 0 0 0 0 0 0 0 0 0 0 0 0 0 0 0 0 0 0 0 0 0 0 0 0 0
0 0 0 0 0 0 0 0 0 0 0 0 0 0 0 0 0 0 0 0 0 0 0 0 0 0 0 0 0 0 0 0 0 0 0 0 0 0 0 0 0 0 0 0
Height
5876 5878 5880 5881 5882 5883 5884 5885 5886 5888 5888 5890 5890 5890 5890 5890 5889 5889 5888 5887 5886 5884 5883 5881 5880 5879 5877 5876 5874 5872 5870 5869 5867 5866 5864 5863 5862 5861 5860 5859 5858 5857 5856 5854
5871 5873 5875 5876 5878 5879 5880 5881 5882 5883 5884 5885 5885 5885 5885 5885 5885 5884 5883 5882 5881 5880 5878 5877 5876 5874 5873 5871 5869 5867 5865 5864 5862 5860 5859 5858 5857 5855 5855 5853 5852 5851 5850 5849
5866 5868 5869 5871 5873 5874 5875 5876 5877 5878 5880 5880 5880 5880 5880 5880 5879 5879 5878 5878 5877 5875 5874 5872 5871 5869 5868 5866 5864 5862 5861 5859 5857 5856 5854 5853 5852 5850 5849 5848 5847 5845 5844 5843
5861 5863 5864 5868 5867 5869 5870 5871 5872 5873 5873 5874 5875 5875 5875 5875 5874 5874 5873 5872 5871 5869 5868 5867 5865 5863 5862 5860 5859 5857 5855 5854 5852 5851 5849 5848 5846 5845 5843 5842 5841 5839 5838 5836
5855 5856 5858 5860 5862 5863 5864 5865 5866 5867 5868 5868 5869 5870 5870 5869 5868 5868 5867 5866 5865 5864 5862 5861 5859 5857 5855 5853 5852 5850 5849 5848 5846 5845 5844 5842 5840 5839 5837 5836 5834 5833 5831 5830
5848 5850 5852 5855 5856 5857 5859 5858 5860 5861 5862 5862 5862 5863 5864 5863 5862 5861 5860 5859 5858 5857 5856 5854 5852 5850 5848 5847 5845 5843 5842 5841 5840 5838 5837 5835 5834 5832 5830 5829 5827 5826 5824 5823
5842 5843 5846 5848 5849 5851 5853 5854 5854 5854 5855 5856 5856 5856 5856 5855 5855 5854 5853 5852 5851 5850 5849 5847 5845 5844 5842 5840 5839 5837 5835 5834 5832 5831 5830 5828 5826 5825 5823 5822 5820 5819 5817 5815
5836 5838 5842 5842 5843 5845 5846 5846 5847 5848 5848 5849 5849 5849 5848 5848 5847 5847 5846 5844 5843 5842 5840 5839 5837 5835 5834 5832 5831 5829 5828 5826 5825 5823 5822 5820 5819 5817 5815 5814 5812 5811 5809 5808
5830 5833 5834 5835 5836 5837 5838 5839 5840 5841 5841 5841 5841 5841 5841 5841 5840 5839 5837 5836 5834 5833 5832 5830 5828 5826 5824 5824 5822 5821 5820 5818 5816 5815 5814 5812 5811 5809 5807 5806 5804 5803 5801 5799
5823 5825 5826 5828 5829 5830 5832 5832 5833 5834 5834 5834 5833 5833 5833 5832 5831 5830 5829 5827 5825 5824 5822 5821 5819 5818 5816 5815 5813 5812 5810 5809 5807 5806 5805 5804 5802 5801 5799 5797 5795 5794 5793 5791
5815 5818 5819 5821 5822 5824 5825 5825 5826 5826 5826 5826 5826 5825 5825 5824 5823 5822 5820 5819 5817 5815 5814 5812 5811 5809 5807 5806 5804 5803 5802 5800 5799 5797 5796 5795 5793 5792 5790 5789 5787 5786 5784 5782
5809 5811 5813 5815 5816 5816 5817 5818 5818 5819 5819 5818 5818 5818 5817 5816 5815 5814 5812 5810 5808 5806 5804 5803 5802 5800 5799 5797 5796 5794 5793 5792 5790 5789 5787 5786 5784 5783 5781 5780 5778 5776 5775 5773
5801 5803 5805 5807 5808 5809 5810 5810 5810 5811 5811 5811 5810 5810 5809 5808 5807 5806 5804 5802 5800 5798 5796 5794 5793 5792 5791 5789 5787 5786 5785 5783 5781 5780 5778 5777 5775 5774 5773 5771 5769 5767 5765 5763
5793 5795 5797 5799 5800 5801 5802 5802 5803 5803 5802 5802 5802 5802 5801 5800 5799 5797 5796 5794 5792 5790 5788 5787 5785 5784 5782 5780 5779 5777 5776 5774 5772 5770 5769 5767 5766 5764 5763 5761 5760 5758 5756 5753
5786 5787 5789 5791 5792 5793 5794 5794 5795 5795 5794 5794 5794 5793 5793 5792 5791 5789 5787 5785 5783 5782 5781 5779 5777 5775 5773 5771 5770 5768 5766 5765 5763 5761 5759 5757 5755 5754 5752 5751 5749 5748 5746 5744
5777 5779 5781 5782 5784 5785 5785 5786 5786 5786 5786 5786 5785 5785 5784 5783 5781 5779 5778 5777 5775 5773 5771 5770 5768 5766 5764 5762 5760 5758 5756 5754 5753 5751 5749 5747 5745 5743 5742 5740 5739 5737 5735 5733
5770 5771 5773 5774 5775 5776 5777 5778 5778 5778 5778 5777 5777 5776 5775 5774 5772 5771 5769 5767 5766 5764 5763 5761 5759 5757 5755 5753 5751 5749 5746 5744 5742 5741 5738 5736 5734 5733 5731 5729 5727 5726 5724 5721
5762 5763 5765 5766 5767 5768 5769 5769 5770 5770 5769 5769 5768 5767 5766 5765 5764 5762 5761 5759 5757 5755 5753 5752 5750 5748 5746 5744 5742 5739 5737 5735 5733 5731 5729 5727 5725 5723 5721 5719 5716 5714 5712 5709
5754 5756 5757 5758 5759 5760 5760 5761 5761 5761 5761 5760 5760 5759 5757 5756 5755 5754 5752 5751 5749 5747 5745 5743 5741 5739 5737 5734 5732 5730 5728 5725 5723 5721 5719 5717 5715 5713 5710 5708 5706 5703 5701 5697
5746 5748 5749 5750 5751 5752 5753 5753 5753 5753 5753 5752 5751 5750 5749 5748 5747 5746 5744 5742 5740 5738 5736 5734 5732 5730 5728 5725 5723 5721 5719 5716 5714 5712 5710 5707 5705 5703 5700 5697 5695 5692 5689 5686
5739 5741 5742 5743 5744 5744 5745 5745 5745 5745 5745 5744 5743 5742 5741 5740 5739 5737 5736 5734 5732 5730 5728 5726 5724 5722 5719 5717 5714 5712 5710 5708 5705 5703 5701 5698 5695 5692 5689 5687 5684 5681 5678 5675
5733 5734 5735 5736 5736 5737 5738 5738 5738 5738 5737 5737 5735 5734 5733 5732 5731 5729 5727 5725 5724 5721 5719 5717 5715 5713 5711 5709 5706 5704 5701 5699 5696 5694 5691 5688 5685 5682 5679 5676 5673 5670 5667 5664
5726 5727 5728 5729 5729 5730 5730 5731 5730 5730 5730 5729 5728 5727 5725 5724 5722 5721 5719 5717 5715 5713 5711 5709 5707 5705 5702 5700 5698 5695 5693 5691 5688 5685 5682 5679 5676 5672 5669 5666 5663 5660 5657 5653
5719 5720 5721 5721 5722 5723 5723 5723 5723 5722 5722 5721 5720 5718 5717 5716 5714 5712 5711 5709 5707 5705 5703 5701 5699 5696 5694 5692 5690 5687 5684 5682 5679 5676 5673 5670 5667 5663 5660 5657 5654 5650 5646 5642
5712 5713 5714 5714 5715 5715 5715 5715 5715 5714 5714 5713 5712 5711 5709 5708 5706 5705 5703 5701 5699 5697 5695 5693 5691 5688 5686 5683 5681 5678 5675 5673 5670 5667 5664 5660 5657 5654 5651 5647 5643 5640 5636 5632
5706 5706 5707 5707 5708 5708 5708 5708 5707 5707 5706 5705 5704 5702 5701 5700 5698 5696 5695 5693 5691 5689 5687 5684 5682 5680 5677 5675 5672 5669 5666 5664 5661 5658 5655 5651 5648 5644 5641 5637 5634 5630 5627 5623
5700 5700 5701 5701 5701 5701 5701 5701 5701 5700 5699 5698 5697 5695 5694 5692 5690 5688 5687 5685 5683 5681 5679 5676 5674 5671 5669 5666 5663 5661 5658 5655 5652 5649 5645 5642 5638 5635 5631 5628 5625 5621 5617 5614
Wind_Speed
20 20 20 19 19 19 19 19 19 20 19 18 18 17 17 17 15 14 15 15 16 16 17 17 18 18 17 18 18 18 18 17 16 16 17 17 17 17 18 18 19 19 20 21
22 22 21 21 20 20 20 20 21 21 20 19 18 18 17 16 16 16 16 16 16 17 17 18 18 18 18 19 20 19 18 17 17 17 18 18 18 19 19 19 19 20 21 22
24 24 23 24 23 22 22 22 22 22 21 20 19 19 19 18 18 17 17 17 18 19 19 19 19 19 20 20 21 21 20 19 19 18 19 19 19 20 21 21 22 22 22 23
26 26 26 24 24 24 25 24 23 23 22 21 20 20 20 20 20 20 20 20 20 21 20 20 20 21 21 22 22 22 22 22 21 20 20 20 21 22 22 23 23 24 25 25
28 28 27 26 26 25 25 25 25 24 23 23 23 22 21 21 21 22 23 23 23 22 22 22 23 23 23 23 24 24 24 23 22 22 22 22 23 23 24 24 24 24 25 25
29 28 28 27 26 26 26 26 25 25 24 24 24 24 23 24 24 24 24 25 25 24 24 25 25 25 24 25 26 26 26 25 24 24 25 25 25 25 25 25 25 25 25 26
29 29 29 27 27 27 27 26 24 25 24 25 25 25 25 25 25 25 25 26 26 27 27 27 27 27 27 28 28 27 27 27 26 27 27 27 27 26 26 26 26 26 26 27
29 30 29 27 27 26 25 25 24 25 25 25 25 25 25 25 26 26 27 28 29 29 29 29 28 28 29 29 29 29 29 29 29 29 29 29 28 28 28 28 28 28 27 27
28 28 28 27 26 26 25 25 25 24 25 26 26 26 25 26 26 27 28 29 29 30 30 30 31 30 30 29 29 30 31 30 30 30 30 30 30 30 29 30 30 29 28 29
27 27 27 26 26 26 26 26 26 26 26 26 26 27 27 27 27 28 29 29 29 30 30 31 31 30 29 28 29 30 30 30 31 30 31 30 30 31 31 31 30 30 30 30
26 26 26 26 27 27 27 28 28 27 26 26 27 27 28 28 29 29 30 29 30 30 30 30 30 30 29 29 29 30 30 31 31 30 30 30 31 31 31 31 31 32 32 32
28 26 26 27 27 27 27 28 28 28 27 26 26 27 27 27 29 30 30 30 30 29 29 29 29 29 29 29 29 29 29 30 32 32 31 31 31 32 31 32 33 33 33 33
29 28 28 28 28 28 28 28 28 29 29 28 27 27 27 27 28 29 29 28 28 28 28 28 29 29 29 29 29 30 31 32 33 34 33 32 32 32 33 33 34 33 34 34
30 30 30 29 29 29 29 30 30 29 29 30 29 29 29 29 29 30 30 30 29 29 29 29 30 31 31 31 32 33 33 33 34 35 35 34 34 33 34 34 34 35 35 35
30 30 30 30 30 30 31 31 31 30 30 30 30 30 31 31 31 31 31 31 30 30 30 30 31 32 32 33 34 34 35 35 35 35 36 36 36 36 35 35 36 36 36 36
30 30 30 30 29 29 30 30 30 30 30 30 30 31 31 31 31 31 31 32 31 31 31 31 32 32 32 33 34 35 35 35 36 36 36 36 36 36 36 36 36 37 37 38
29 29 29 29 29 29 29 29 29 29 29 30 30 30 30 31 31 31 31 31 31 31 31 32 32 32 32 32 33 34 34 35 35 35 34 35 35 36 36 36 36 37 38 39
28 28 28 28 28 29 29 29 29 29 29 30 31 30 30 30 30 30 30 30 30 30 30 30 31 31 31 31 31 32 33 33 34 34 33 34 34 35 35 36 37 37 38 39
27 28 28 28 28 28 28 28 28 29 29 29 30 29 29 29 29 29 29 30 30 30 30 31 31 31 31 32 31 31 31 32 32 33 33 33 34 34 36 37 37 37 38 38
26 27 27 28 27 27 27 28 28 27 27 28 28 28 28 28 28 29 29 28 29 29 30 30 31 31 31 30 30 30 30 30 31 31 31 33 34 35 36 36 36 37 37 37
24 25 26 26 26 26 26 26 26 26 26 26 27 27 27 27 27 28 28 29 29 29 29 29 29 29 29 29 28 28 28 29 30 31 32 33 34 34 34 35 35 35 36 37
23 24 24 25 25 25 25 25 25 25 25 26 26 27 27 27 27 28 29 29 28 28 28 28 28 28 28 28 28 28 29 29 29 30 31 32 33 33 33 34 34 35 36 37
23 23 23 24 24 24 24 24 25 25 26 26 27 27 27 27 28 28 28 28 27 27 27 27 27 28 28 28 28 28 29 29 30 30 30 31 31 32 32 33 34 34 35 35
23 23 23 23 24 24 24 24 24 24 25 25 26 26 27 27 27 27 27 27 27 27 27 27 27 27 27 27 28 28 29 29 29 30 30 31 31 32 32 32 33 34 34 34
22 23 23 23 23 23 23 23 23 24 24 25 25 25 26 26 26 26 26 26 26 26 26 26 27 27 28 28 29 29 29 29 30 31 31 32 32 33 33 33 33 33 33 33
21 21 21 22 22 22 22 22 22 23 23 24 25 25 25 25 25 25 25 25 26 26 26 26 27 27 28 28 29 29 29 30 30 31 32 32 32 32 32 32 32 32 33 33
20 20 20 21 21 22 22 22 23 23 23 23 24 24 25 25 25 25 26 26 26 26 26 27 27 28 28 28 28 29 29 30 31 31 31 31 32 32 32 32 32 32 32 32
Wind_Direction
240 243 245 248 252 252 252 257 263 267 269 272 275 274 275 279 284 287 284 284 287 289 290 291 292 294 297 297 298 295 293 296 296 296 293 289 286 285 285 284 284 283 283 282
242 246 249 251 254 257 258 261 264 266 269 272 276 276 278 279 279 281 283 283 282 284 287 289 290 290 294 296 300 300 297 298 297 295 291 289 287 285 285 285 284 285 285 283
245 248 253 254 257 260 262 264 265 267 268 270 272 275 276 278 279 280 282 283 281 282 283 284 285 287 289 292 297 296 295 296 296 296 294 291 288 286 285 286 287 287 287 287
248 250 253 258 260 261 261 263 265 267 269 269 271 273 275 278 279 278 281 283 282 283 286 286 285 286 289 290 291 292 292 294 294 293 293 293 293 292 291 290 287 288 289 289
249 252 255 257 259 260 261 262 265 268 269 270 272 274 277 279 281 280 279 280 282 284 287 288 290 289 288 288 288 288 289 290 290 291 292 294 295 295 295 293 292 292 290 289
249 253 257 260 260 261 263 264 265 268 268 269 274 275 277 277 278 281 282 281 280 282 284 286 288 288 286 288 287 286 285 285 287 290 293 295 296 296 295 293 292 290 290 289
251 254 258 260 262 262 262 264 266 268 269 270 272 275 275 275 276 277 279 279 279 280 283 284 285 286 285 286 286 285 285 286 288 288 291 292 294 295 295 294 293 291 290 288
252 255 258 260 262 261 263 263 264 267 268 270 271 274 274 273 275 276 277 278 279 279 280 282 284 284 284 285 284 285 286 286 287 286 287 288 289 291 293 293 292 289 288 288
252 254 256 257 259 260 260 262 263 265 267 269 270 272 274 273 274 273 274 276 277 279 281 283 285 286 284 286 286 286 286 285 285 284 284 285 288 289 289 289 288 288 289 291
252 252 253 255 257 260 262 264 265 267 268 268 269 271 273 273 274 276 277 277 278 281 282 283 284 285 286 287 288 287 286 285 284 285 285 285 286 287 288 287 286 288 290 291
251 251 252 254 256 258 261 264 267 269 270 270 270 271 274 274 275 276 277 279 280 281 282 283 283 283 284 286 286 286 287 288 289 287 285 284 285 288 287 286 287 288 289 289
252 252 254 254 256 259 261 264 268 269 270 272 274 273 274 275 277 279 278 277 279 282 283 282 282 283 284 284 286 287 288 289 289 288 285 285 286 288 289 287 286 286 287 288
254 255 255 257 259 260 262 265 268 270 271 272 274 276 276 277 278 282 283 281 282 284 285 285 285 285 286 285 286 287 289 290 290 290 288 285 285 286 287 287 287 287 288 289
256 257 256 258 261 263 264 265 268 271 272 274 276 277 278 279 282 285 287 286 284 285 286 286 286 286 286 286 286 288 289 289 289 290 289 287 285 285 285 285 286 286 287 289
255 256 257 258 260 262 264 266 268 271 273 275 276 277 279 282 285 286 288 288 286 286 286 287 287 287 287 286 286 287 287 288 288 289 289 288 285 283 284 285 285 286 287 288
255 256 257 258 260 262 264 266 268 269 272 275 277 278 280 283 285 286 287 287 285 285 286 287 287 287 288 287 286 286 286 286 286 287 287 287 284 282 283 285 286 286 286 287
254 255 256 258 260 261 264 266 268 270 273 276 277 279 281 283 284 285 285 285 285 285 285 286 287 288 288 287 287 286 286 286 286 286 285 286 286 284 284 286 287 287 287 288
253 254 256 259 261 264 267 268 269 271 273 275 278 280 281 282 283 283 284 285 286 286 287 287 287 288 289 290 289 288 288 288 287 287 287 287 286 286 287 288 289 289 290 290
253 256 258 259 262 265 267 268 270 273 276 278 280 281 282 283 284 285 285 286 286 287 288 288 290 291 291 291 290 290 291 290 290 290 289 289 287 289 290 291 290 290 291 291
256 257 259 260 261 264 266 269 271 273 275 278 280 282 283 284 286 287 287 289 290 290 290 291 292 292 292 293 292 291 292 293 292 291 290 289 290 291 291 291 291 291 292 292
256 256 257 259 261 263 266 267 268 269 272 277 281 283 284 285 286 287 288 290 291 292 292 292 292 293 293 293 294 294 294 294 293 293 293 293 292 292 292 292 292 293 293 294
257 256 255 257 259 261 264 266 269 270 272 276 280 281 283 284 286 288 289 290 291 292 293 293 293 293 292 292 293 294 294 296 296 296 297 297 296 296 296 295 295 296 296 296
258 257 257 259 261 263 265 267 271 275 276 277 279 281 282 285 287 288 290 290 291 291 292 293 293 293 293 292 293 294 295 295 296 298 299 299 299 300 300 300 299 298 298 299
257 258 260 262 264 265 266 269 272 275 278 281 282 283 285 286 287 289 289 290 291 292 292 293 293 293 294 294 294 295 296 297 297 299 300 301 301 302 303 303 303 303 302 302
257 260 262 264 266 266 268 270 272 276 279 282 284 286 288 289 290 291 291 291 292 292 293 294 295 296 296 296 297 297 298 298 299 300 302 303 303 304 304 304 305 306 306 305
260 262 263 264 266 268 272 276 278 280 283 285 286 287 287 288 289 290 290 290 291 292 293 294 296 297 298 299 299 300 300 300 301 302 304 304 304 304 304 305 306 306 307 307
260 263 265 267 269 271 273 276 279 282 285 288 288 288 288 288 289 290 291 291 291 292 294 295 297 298 299 300 300 301 301 302 303 304 304 304 304 305 306 307 306 306 306 306